DELTA 1 DEB, 7156

Orbit data source: Space-Track

DELTA 1 DEB, 7156 is space debris in SSO originally from a launch on Tue, 06 Nov 1973 UTC launched from the Air Force Western Test Range (AFWTR). Debris objects in space refer to the collection of defunct objects orbiting the Earth. Examples of debris include non-operational satellites, rocket bodies, and fragments generated from explosions, collisions, or faulty payload assembly.

Loading next visibility...
Identifier
7156, 1973-086DV
Orbit
SSO
Country
Flag of USUS
Related business
Manufacturer
Unknown
Mission
Spacecraft
Bus & Motor
Unknown
Mass
Unknown
Launch date (UTC)
1973-11-06 (53 years ago)
Launch vehicle
Unknown
Launch site
Air Force Western Test Range (AFWTR)
Object type
Payload
Rocket body
Debris
Shape & HBR
Unknown shape, 0.2 m
Radar Cross Section
Medium (>0.1 m² and <1 m²)

Expand to show TLE details & history
Last TLE update: 12 hours ago

TLE from 12 hours ago
0 DELTA 1 DEB
1  7156U 73086DV  26221.57571264 -.00000035  00000-0  51160-4 0  9999
2  7156 101.9837  90.6675 0137167  97.4774 320.9539 12.14426820338977
Epoch: 2026-08-09T13:49Z
TLE epoch observation values (Epoch: 2026-08-09T13:49:01.572Z)
Latitude
55.61633°
Longitude
-92.63905°
Altitude
1,541.348 km
Speed
7.138 km/s
True Right ascension
04h 50m 45s
True Declination
55° 28' 18"
Sunlit
Object was in daylight at epoch
Visualization orbit readout
Latitude
Unknown
Longitude
Unknown
Altitude
Unknown
Speed
Unknown
Apparent Right ascension
Unknown
Apparent Declination
Unknown
Sunlit
N/A
Visualization observer readout
Local Sidereal Time
16:17:03
Azimuth
Unknown
Elevation
Unknown
Doppler factor
Unknown
Orbital elements
Apogee altitude
1,724.148 km
Perigee altitude
1,504.882 km
Semi-major axis
7,992.652 km
Eccentricity
0.01372
Inclination
101.9837°
RAAN
90.6675°
Arg. of periapsis
97.4774°
True anomaly
319.95044°
Mean anomaly
320.9539°
Eccentric anomaly
320.45351°
Mean motion
3.03743 °/min
Orbital period
118.52 mins
BSTAR
0.00005116
Loading maneuver chart data...
Computing Atmospheric mass density...
Loading historical data...
Loading historical data...
Loading historical data...
Loading historical data...
Loading historical data...
Loading historical data...
Loading historical data...

Documentation

Showing up to 5 results
|